#timestamp,LO_Frequency,Hit 
1504224015.6,286046991.5,N
1504224035.4,286046992.5,N
1504224055.2,286046991.9,N
1504224075.0,286046992.4,N
1504224076.0,286046992.4,N
1504224095.8,286046992.2,P
1504224115.6,286046999.7,N
1504224135.5,286047000.2,N
1504224155.3,286047001.5,N
1504224175.1,286047001.9,N
1504224195.9,286047004.7,N
1504224215.7,286047002.9,N
1504224235.5,286047005.3,N
1504224255.3,286047003.3,N
1504224275.2,286046998.4,N
1504224295.0,286046999.4,N
1504224295.9,286046999.4,N
1504224315.7,286047003.4,N
1504224335.6,286047005.4,N
1504224355.4,286047006.6,N
1504224375.2,286047006.4,N
1504224395.1,286047008.9,N
1504224396.0,286047008.9,N
1504224415.8,286047007.7,N
1504224435.6,286047008.8,N
1504224455.5,286047006.7,N
1504224475.3,286047010.4,N
1504224495.1,286047008.7,N
1504224515.9,286047006.5,N
1504224535.7,286047005.5,N
1504224555.5,286047005.5,N
1504224575.3,286047008.7,N
1504224595.2,286047006.5,N
1504224615.0,286047006.7,N
1504224615.9,286047006.7,N
1504224635.7,286047005.5,N
1504224655.6,286047002.9,N
1504224675.4,286047003.3,N
1504224695.2,286047007.3,N
1504224715.1,286047009.0,P
1504224716.0,286047009.0,P
1504224735.8,286047003.4,N
1504224755.7,286047008.0,P
1504224775.5,286047003.1,P
1504224795.3,286047001.8,N
1504224815.2,286047002.2,N
1504224835.9,286047002.1,N
1504224855.7,286047004.4,N
1504224875.5,286047001.0,N
1504224895.4,286047000.4,N
1504224915.2,286047001.0,N
1504224935.0,286046998.3,N
1504224935.9,286046998.3,N
1504224955.8,286047000.2,N
1504224975.6,286047001.9,N
1504224995.4,286047001.5,N
1504225015.3,286047005.4,N
1504225035.1,286047004.3,N
1504225036.0,286047004.3,N
1504225055.8,286047001.9,N
1504225075.7,286047003.2,N
1504225095.5,286047000.7,N
1504225115.3,286046997.6,N
1504225135.2,286046997.7,N
1504225155.9,286046999.1,N
1504225175.7,286046998.3,N
1504225195.5,286047002.3,N
1504225215.4,286047000.3,N
1504225235.2,286047003.6,N
1504225255.0,286047000.8,N
1504225255.9,286047000.8,N
1504225275.8,286047001.8,N
1504225295.6,286047004.7,N
1504225315.4,286047001.6,N
1504225335.3,286047002.8,N
1504225355.1,286046997.4,N
1504225356.0,286046997.4,N
1504225375.8,286046996.2,N
1504225395.7,286046999.0,N
1504225415.5,286046999.5,N
1504225435.3,286046999.0,N
1504225455.2,286046997.3,N
1504225475.9,286046996.8,N
1504225495.7,286046996.5,N
1504225515.6,286046996.8,N
1504225535.4,286046999.9,N
1504225555.2,286047000.2,N
1504225575.0,286046998.2,N
1504225576.0,286046998.2,N
1504225595.8,286046998.0,N
1504225615.6,286046996.0,N
1504225635.4,286046994.7,N
1504225655.3,286046992.8,P
1504225675.1,286046992.9,N
1504225695.9,286046992.3,N
1504225715.7,286046993.0,N
1504225735.5,286046992.9,N
1504225755.3,286046996.0,N
1504225775.2,286046994.8,N
1504225795.0,286046994.6,N
1504225795.9,286046994.6,N
1504225815.8,286046991.8,P
1504225835.6,286046998.2,N
1504225855.4,286047001.3,N
1504225875.2,286047003.1,N
1504225895.1,286047005.8,N
1504225896.0,286047005.8,N
1504225915.8,286047007.2,N
1504225935.6,286047003.7,N
1504225955.5,286047002.5,N
1504225975.3,286046998.3,N
1504225995.1,286046999.0,N
1504226015.9,286047001.2,N
1504226035.7,286047001.3,N
1504226055.5,286047001.3,N
1504226075.4,286046999.7,N
1504226095.2,286047002.3,N
1504226115.0,286047002.5,N
1504226115.9,286047002.5,N
1504226135.8,286047004.0,N
1504226155.6,286047003.7,N
1504226175.4,286047006.0,N
1504226195.2,286047004.3,N
1504226215.1,286047001.4,N
1504226216.0,286047001.4,N
1504226235.8,286046998.2,N
1504226255.6,286046996.5,N
1504226275.5,286046997.8,N
1504226295.3,286046996.8,N
1504226315.1,286046998.9,N
1504226335.9,286046999.1,N
1504226355.7,286046998.2,N
1504226375.5,286046996.6,N
1504226395.4,286046997.3,N
1504226415.2,286046996.5,N
1504226435.0,286047001.2,N
1504226435.9,286047001.2,N
1504226455.8,286046997.0,N
1504226475.6,286047000.0,N
1504226495.4,286046998.5,N
1504226515.2,286047001.2,N
1504226535.1,286046999.8,N
1504226536.0,286046999.8,N
1504226555.8,286046999.7,N
1504226575.6,286047000.1,N
1504226595.5,286046998.9,N
1504226615.3,286046997.8,N
1504226635.1,286046993.4,N
1504226655.9,286046995.1,N
1504226675.7,286046999.0,N
1504226695.5,286046998.7,N
1504226715.4,286047000.8,N
1504226735.2,286047003.0,N
1504226755.0,286047001.6,N
1504226755.9,286047001.6,N
1504226775.8,286047001.8,N
1504226795.6,286047000.1,N
1504226815.4,286047001.8,N
1504226835.3,286047002.0,N
1504226855.1,286046998.6,N
1504226875.8,286047001.7,N
1504226895.7,286047001.3,N
1504226915.5,286047002.6,N
1504226935.3,286047003.8,N
1504226955.2,286047003.3,N
1504226975.9,286047005.5,N
1504226995.7,286047003.3,N
1504227015.5,286047003.1,N
1504227035.4,286047003.5,N
1504227055.2,286047010.6,P
1504227075.1,286047009.0,N
1504227076.0,286047009.0,N
1504227095.8,286047007.5,N
1504227115.6,286047001.7,N
1504227135.4,286047003.1,N
1504227155.3,286047002.8,N
1504227175.1,286047001.4,N
1504227195.8,286047008.0,N
1504227215.7,286047008.7,N
1504227235.5,286047005.8,N
1504227255.3,286047003.4,N
1504227275.2,286047006.9,N
1504227295.9,286047007.6,N
1504227315.7,286047007.0,N
1504227335.6,286047005.3,N
1504227355.4,286047007.1,N
1504227375.2,286047007.4,N
1504227395.1,286047008.4,N
1504227396.0,286047008.4,N
1504227415.8,286047008.3,N
1504227435.6,286047009.9,P
1504227455.5,286047003.3,N
1504227475.3,286047004.0,N
1504227495.1,286047003.7,N
1504227515.9,286047002.1,N
1504227535.7,286046999.9,N
1504227555.5,286046997.4,N
1504227575.3,286047002.7,N
1504227595.2,286046999.8,N
